User: anonymous   Login
Location: Unspecified
(0.0000°N, 0.0000°E)
Time: 14:52:49
(UTC+00:00)
Language:

NOAA 14 - Orbit

View from above orbital plane
View from above orbital plane
View from above satellite
View from above satellite

Ground track
Ground track

The orbit data is extracted from the following two-line orbital elements,

1 23455U 94089A   18202.59322681 -.00000028 +00000-0 +75844-5 0  9992
2 23455 098.6430 270.5169 0010606 094.9879 265.2506 14.14117931215040
Epoch (UTC): 21 July 2018 14:14:14
Eccentricity: 0.0010606
inclination: 98.6430°
perigee height: 837 km
apogee height: 853 km
right ascension of ascending node: 270.5169°
argument of perigee: 94.9879°
revolutions per day: 14.14117931
mean anomaly at epoch: 265.2506°
orbit number at epoch: 21504

The dashed part of the orbit path shows where the satellite is in the earth's shadow,  

DLR